Date,TemperatureHighF,TemperatureAvgF,TemperatureLowF,DewpointHighF,DewpointAvgF,DewpointLowF,HumidityHigh,HumidityAvg,HumidityLow,PressureMaxIn,PressureMinIn,WindSpeedMaxMPH,WindSpeedAvgMPH,GustSpeedMaxMPH,PrecipitationSumIn
2013-2-1,68,53,37,19,12,6,29,20,15,25.63,25.45,20,7,20,0.00
2013-2-2,66,52,41,17,12,4,30,20,15,25.72,25.57,23,6,23,9.71
2013-2-3,66,48,37,25,19,12,43,32,18,25.72,25.42,23,6,23,0.00
2013-2-4,69,60,50,29,23,16,30,24,19,25.42,25.31,33,12,33,0.00
2013-2-5,70,56,43,29,23,14,46,28,20,25.51,25.34,28,7,28,0.00
2013-2-6,73,58,46,32,25,20,38,28,19,25.45,25.28,21,6,21,0.00
2013-2-7,72,55,45,27,20,14,38,25,16,25.60,25.39,24,6,24,0.00
2013-2-8,64,50,35,29,23,13,58,36,24,25.63,25.37,57,8,57,0.24
2013-2-9,74,59,48,32,24,8,50,29,13,25.42,25.13,42,18,42,66.10
2013-2-10,65,49,37,20,13,6,30,23,17,25.45,25.28,26,8,26,0.00
2013-2-11,67,53,38,29,19,9,48,27,18,25.45,25.25,33,7,33,0.46
2013-2-12,54,44,33,27,12,1,49,27,18,25.48,25.28,44,12,44,0.09
2013-2-13,60,43,27,18,10,-1,57,28,16,25.51,25.34,25,6,25,0.00
2013-2-14,66,50,37,17,9,1,22,19,15,25.48,25.34,26,9,26,0.00
2013-2-15,46,37,30,26,19,2,71,52,19,25.75,25.48,27,9,27,0.00
2013-2-16,65,46,28,22,15,5,73,33,15,25.78,25.57,194,6,194,0.00
2013-2-17,70,55,42,20,12,4,23,18,14,25.57,25.28,29,9,29,0.00
2013-2-18,67,57,44,18,12,2,21,17,15,25.48,25.28,39,13,39,0.00
2013-2-19,60,50,43,28,13,3,53,23,16,25.51,25.31,27,7,27,0.00
2013-2-20,76,58,40,31,23,12,63,32,13,25.37,24.92,40,14,40,58.85
2013-2-21,58,45,35,20,13,0,52,29,17,25.34,25.07,50,18,50,0.00
2013-2-22,69,48,32,20,8,-1,25,20,15,25.42,25.31,33,7,33,0.00
2013-2-23,67,51,34,20,12,2,32,21,15,25.48,25.25,28,9,28,0.00
2013-2-24,72,60,40,20,14,0,20,17,14,25.28,24.98,34,13,34,0.00
2013-2-25,53,41,30,15,7,-2,37,25,18,25.39,25.19,44,18,44,0.00
2013-2-26,66,50,32,17,8,-2,23,18,15,25.37,25.19,33,11,33,0.00
2013-2-27,56,41,31,15,6,-5,31,23,16,25.63,25.28,32,10,32,0.00
2013-2-28,62,43,26,18,8,2,36,25,16,25.66,25.66,13,4,14,146.33